Time,TemperatureF,DewpointF,PressureIn,WindDirection,WindDirectionDegrees,WindSpeedMPH,WindSpeedGustMPH,Humidity,HourlyPrecipIn,Conditions,Clouds,dailyrainin,SolarRadiationWatts/m^2,SoftwareType,DateUTC
2013-03-19 00:13:00,64.0,-31.0,-100.00,ESE,105,1.0,3.0,0,0.00,,,0.01,60.000000,,2013-03-19 04:13:00,
2013-03-19 00:23:00,64.0,-31.0,-100.00,ESE,105,1.0,3.0,0,0.00,,,0.01,60.000000,,2013-03-19 04:23:00,
2013-03-19 00:33:00,64.0,-31.0,-100.00,ESE,105,1.0,3.0,0,0.00,,,0.01,60.000000,,2013-03-19 04:33:00,
2013-03-19 00:42:00,64.0,-31.0,-100.00,ESE,105,1.0,3.0,0,0.00,,,0.01,60.000000,,2013-03-19 04:42:00,
2013-03-19 00:51:00,62.0,-32.0,-100.00,ENE,76,0.0,2.0,0,0.00,,,0.01,14.000000,,2013-03-19 04:51:00,
2013-03-19 01:22:00,62.0,-32.0,-100.00,ENE,76,0.0,2.0,0,0.00,,,0.01,14.000000,,2013-03-19 05:22:00,
2013-03-19 01:32:00,62.0,-32.0,-100.00,ENE,76,0.0,2.0,0,0.00,,,0.01,14.000000,,2013-03-19 05:32:00,
2013-03-19 01:42:00,62.0,-32.0,-100.00,ENE,76,0.0,2.0,0,0.00,,,0.01,14.000000,,2013-03-19 05:42:00,
2013-03-19 01:51:00,59.0,-34.0,-100.00,East,85,0.0,0.0,0,0.00,,,0.01,0.000000,,2013-03-19 05:51:00,
2013-03-19 02:12:00,59.0,-34.0,-100.00,East,85,0.0,0.0,0,0.00,,,0.01,0.000000,,2013-03-19 06:12:00,
2013-03-19 02:22:00,59.0,-34.0,-100.00,East,85,0.0,0.0,0,0.00,,,0.01,0.000000,,2013-03-19 06:22:00,
2013-03-19 02:32:00,59.0,-34.0,-100.00,East,85,0.0,0.0,0,0.00,,,0.01,0.000000,,2013-03-19 06:32:00,
2013-03-19 02:42:00,59.0,-34.0,-100.00,East,85,0.0,0.0,0,0.00,,,0.01,0.000000,,2013-03-19 06:42:00,
2013-03-19 02:51:00,58.0,-34.0,-100.00,SE,135,0.0,0.0,0,0.00,,,0.01,0.000000,,2013-03-19 06:51:00,
2013-03-19 03:12:00,58.0,-34.0,-100.00,SE,135,0.0,0.0,0,0.00,,,0.01,0.000000,,2013-03-19 07:12:00,
2013-03-19 03:21:00,58.0,-34.0,-100.00,SE,135,0.0,0.0,0,0.00,,,0.01,0.000000,,2013-03-19 07:21:00,
2013-03-19 03:32:00,58.0,-34.0,-100.00,SE,135,0.0,0.0,0,0.00,,,0.01,0.000000,,2013-03-19 07:32:00,
2013-03-19 03:42:00,58.0,-34.0,-100.00,SE,135,0.0,0.0,0,0.00,,,0.01,0.000000,,2013-03-19 07:42:00,
2013-03-19 03:51:00,58.0,-34.0,-100.00,SE,142,0.0,0.0,0,0.00,,,0.01,0.000000,,2013-03-19 07:51:00,
2013-03-19 04:12:00,58.0,-34.0,-100.00,SE,142,0.0,0.0,0,0.00,,,0.01,0.000000,,2013-03-19 08:12:00,
2013-03-19 04:22:00,58.0,-34.0,-100.00,SE,142,0.0,0.0,0,0.00,,,0.01,0.000000,,2013-03-19 08:22:00,
2013-03-19 04:32:00,58.0,-34.0,-100.00,SE,142,0.0,0.0,0,0.00,,,0.01,0.000000,,2013-03-19 08:32:00,
2013-03-19 04:42:00,58.0,-34.0,-100.00,SE,142,0.0,0.0,0,0.00,,,0.01,0.000000,,2013-03-19 08:42:00,
2013-03-19 04:51:00,58.0,-34.0,-100.00,SE,144,0.0,0.0,0,0.00,,,0.01,0.000000,,2013-03-19 08:51:00,
2013-03-19 05:12:00,58.0,-34.0,-100.00,SE,144,0.0,0.0,0,0.00,,,0.01,0.000000,,2013-03-19 09:12:00,
2013-03-19 05:22:00,58.0,-34.0,-100.00,SE,144,0.0,0.0,0,0.00,,,0.01,0.000000,,2013-03-19 09:22:00,
2013-03-19 05:32:00,58.0,-34.0,-100.00,SE,144,0.0,0.0,0,0.00,,,0.01,0.000000,,2013-03-19 09:32:00,
2013-03-19 05:42:00,58.0,-34.0,-100.00,SE,144,0.0,0.0,0,0.00,,,0.01,0.000000,,2013-03-19 09:42:00,
2013-03-19 05:51:00,58.0,-42.0,-100.00,SE,145,0.0,0.0,1,0.00,,,0.01,0.000000,,2013-03-19 09:51:00,
2013-03-19 06:23:00,58.0,-42.0,-100.00,SE,145,0.0,0.0,1,0.00,,,0.01,0.000000,,2013-03-19 10:23:00,
2013-03-19 06:32:00,58.0,-42.0,-100.00,SE,145,0.0,0.0,1,0.00,,,0.01,0.000000,,2013-03-19 10:32:00,
2013-03-19 06:42:00,58.0,-42.0,-100.00,SE,145,0.0,0.0,1,0.00,,,0.01,0.000000,,2013-03-19 10:42:00,
2013-03-19 06:51:00,58.0,-42.0,-100.00,South,189,0.0,0.0,1,0.00,,,0.01,0.000000,,2013-03-19 10:51:00,
2013-03-19 07:22:00,58.0,-42.0,-100.00,South,189,0.0,0.0,1,0.00,,,0.01,0.000000,,2013-03-19 11:22:00,
2013-03-19 07:32:00,58.0,-42.0,-100.00,South,189,0.0,0.0,1,0.00,,,0.01,0.000000,,2013-03-19 11:32:00,
2013-03-19 07:42:00,58.0,-42.0,-100.00,South,189,0.0,0.0,1,0.00,,,0.01,0.000000,,2013-03-19 11:42:00,
2013-03-19 07:51:00,58.0,-30.0,-100.00,SSW,195,0.0,0.0,2,0.00,,,0.01,0.000000,,2013-03-19 11:51:00,
2013-03-19 08:12:00,58.0,-30.0,-100.00,SSW,195,0.0,0.0,2,0.00,,,0.01,0.000000,,2013-03-19 12:12:00,
2013-03-19 08:22:00,58.0,-30.0,-100.00,SSW,195,0.0,0.0,2,0.00,,,0.01,0.000000,,2013-03-19 12:22:00,
2013-03-19 08:32:00,58.0,-30.0,-100.00,SSW,195,0.0,0.0,2,0.00,,,0.01,0.000000,,2013-03-19 12:32:00,
2013-03-19 08:42:00,58.0,-30.0,-100.00,SSW,195,0.0,0.0,2,0.00,,,0.01,0.000000,,2013-03-19 12:42:00,
2013-03-19 08:51:00,57.0,-43.0,-100.00,SSW,208,0.0,0.0,1,0.00,,,-99.99,0.000000,,2013-03-19 12:51:00,
2013-03-19 09:22:00,57.0,-43.0,-100.00,SSW,208,0.0,0.0,1,0.00,,,-99.99,0.000000,,2013-03-19 13:22:00,
2013-03-19 09:32:00,57.0,-43.0,-100.00,SSW,208,0.0,0.0,1,0.00,,,-99.99,0.000000,,2013-03-19 13:32:00,
2013-03-19 09:42:00,57.0,-43.0,-100.00,SSW,208,0.0,0.0,1,0.00,,,-99.99,0.000000,,2013-03-19 13:42:00,
2013-03-19 09:51:00,57.0,-43.0,-100.00,SSW,208,0.0,0.0,1,0.00,,,0.01,0.000000,,2013-03-19 13:51:00,
2013-03-19 10:12:00,57.0,-43.0,-100.00,SSW,208,0.0,0.0,1,0.00,,,0.01,0.000000,,2013-03-19 14:12:00,
2013-03-19 10:22:00,57.0,-43.0,-100.00,SSW,208,0.0,0.0,1,0.00,,,0.01,0.000000,,2013-03-19 14:22:00,
2013-03-19 10:32:00,57.0,-43.0,-100.00,SSW,208,0.0,0.0,1,0.00,,,0.01,0.000000,,2013-03-19 14:32:00,
2013-03-19 10:42:00,57.0,-43.0,-100.00,SSW,208,0.0,0.0,1,0.00,,,0.01,0.000000,,2013-03-19 14:42:00,
2013-03-19 10:51:00,57.0,-35.0,-100.00,SSW,204,0.0,0.0,0,0.00,,,0.00,0.000000,,2013-03-19 14:51:00,
2013-03-19 11:22:00,57.0,-35.0,-100.00,SSW,204,0.0,0.0,0,0.00,,,0.00,0.000000,,2013-03-19 15:22:00,
2013-03-19 11:33:00,57.0,-35.0,-100.00,SSW,204,0.0,0.0,0,0.00,,,0.00,0.000000,,2013-03-19 15:33:00,
2013-03-19 11:43:00,57.0,-35.0,-100.00,SSW,204,0.0,0.0,0,0.00,,,0.00,0.000000,,2013-03-19 15:43:00,
2013-03-19 11:51:00,58.0,-34.0,-100.00,SSW,204,0.0,0.0,0,0.00,,,0.00,0.000000,,2013-03-19 15:51:00,
2013-03-19 12:23:00,58.0,-34.0,-100.00,SSW,204,0.0,0.0,0,0.00,,,0.00,0.000000,,2013-03-19 16:23:00,
2013-03-19 12:33:00,58.0,-34.0,-100.00,SSW,204,0.0,0.0,0,0.00,,,0.00,0.000000,,2013-03-19 16:33:00,
2013-03-19 12:43:00,58.0,-34.0,-100.00,SSW,204,0.0,0.0,0,0.00,,,0.00,0.000000,,2013-03-19 16:43:00,
2013-03-19 12:51:00,57.0,-35.0,-100.00,SSW,200,0.0,0.0,0,0.00,,,0.00,1.000000,,2013-03-19 16:51:00,
2013-03-19 13:23:00,57.0,-35.0,-100.00,SSW,200,0.0,0.0,0,0.00,,,0.00,1.000000,,2013-03-19 17:23:00,
2013-03-19 13:34:00,57.0,-35.0,-100.00,SSW,200,0.0,0.0,0,0.00,,,0.00,1.000000,,2013-03-19 17:34:00,
2013-03-19 13:43:00,57.0,-35.0,-100.00,SSW,200,0.0,0.0,0,0.00,,,0.00,1.000000,,2013-03-19 17:43:00,
2013-03-19 13:51:00,60.0,-33.0,-100.00,SSW,208,0.0,1.0,0,0.00,,,0.00,24.000000,,2013-03-19 17:51:00,
2013-03-19 14:13:00,60.0,-33.0,-100.00,SSW,208,0.0,1.0,0,0.00,,,0.00,24.000000,,2013-03-19 18:13:00,
2013-03-19 14:23:00,60.0,-33.0,-100.00,SSW,208,0.0,1.0,0,0.00,,,0.00,24.000000,,2013-03-19 18:23:00,
2013-03-19 14:33:00,60.0,-33.0,-100.00,SSW,208,0.0,1.0,0,0.00,,,0.00,24.000000,,2013-03-19 18:33:00,
2013-03-19 14:42:00,60.0,-33.0,-100.00,SSW,208,0.0,1.0,0,0.00,,,0.00,24.000000,,2013-03-19 18:42:00,
2013-03-19 14:51:00,63.0,-31.0,-100.00,East,98,1.0,3.0,0,0.00,,,0.00,104.000000,,2013-03-19 18:51:00,
2013-03-19 15:22:00,63.0,-31.0,-100.00,East,98,1.0,3.0,0,0.00,,,0.00,104.000000,,2013-03-19 19:22:00,
2013-03-19 15:32:00,63.0,-31.0,-100.00,East,98,1.0,3.0,0,0.00,,,0.00,104.000000,,2013-03-19 19:32:00,
2013-03-19 15:42:00,63.0,-31.0,-100.00,East,98,1.0,3.0,0,0.00,,,0.00,104.000000,,2013-03-19 19:42:00,
2013-03-19 15:51:00,68.0,-28.0,-100.00,NE,49,1.0,5.0,0,0.00,,,0.00,212.000000,,2013-03-19 19:51:00,
2013-03-19 16:22:00,68.0,-28.0,-100.00,NE,49,1.0,5.0,0,0.00,,,0.00,212.000000,,2013-03-19 20:22:00,
2013-03-19 16:32:00,68.0,-28.0,-100.00,NE,49,1.0,5.0,0,0.00,,,0.00,212.000000,,2013-03-19 20:32:00,
2013-03-19 16:42:00,68.0,-28.0,-100.00,NE,49,1.0,5.0,0,0.00,,,0.00,212.000000,,2013-03-19 20:42:00,
2013-03-19 16:51:00,70.0,-27.0,-100.00,NW,318,0.0,5.0,0,0.00,,,0.00,251.000000,,2013-03-19 20:51:00,
2013-03-19 17:22:00,70.0,-27.0,-100.00,NW,318,0.0,5.0,0,0.00,,,0.00,251.000000,,2013-03-19 21:22:00,
2013-03-19 17:33:00,70.0,-27.0,-100.00,NW,318,0.0,5.0,0,0.00,,,0.00,251.000000,,2013-03-19 21:33:00,
2013-03-19 17:42:00,70.0,-27.0,-100.00,NW,318,0.0,5.0,0,0.00,,,0.00,251.000000,,2013-03-19 21:42:00,
2013-03-19 17:51:00,75.0,-24.0,-100.00,ENE,75,2.0,7.0,0,0.00,,,0.00,708.000000,,2013-03-19 21:51:00,
2013-03-19 18:23:00,75.0,-24.0,-100.00,ENE,75,2.0,7.0,0,0.00,,,0.00,708.000000,,2013-03-19 22:23:00,
2013-03-19 18:33:00,75.0,-24.0,-100.00,ENE,75,2.0,7.0,0,0.00,,,0.00,708.000000,,2013-03-19 22:33:00,
2013-03-19 18:43:00,75.0,-24.0,-100.00,ENE,75,2.0,7.0,0,0.00,,,0.00,708.000000,,2013-03-19 22:43:00,
2013-03-19 18:51:00,72.0,-26.0,-100.00,East,91,0.0,6.0,0,0.00,,,-99.99,429.000000,,2013-03-19 22:51:00,
2013-03-19 19:22:00,72.0,-26.0,-100.00,East,91,0.0,6.0,0,0.00,,,-99.99,429.000000,,2013-03-19 23:22:00,
2013-03-19 19:32:00,72.0,-26.0,-100.00,East,91,0.0,6.0,0,0.00,,,-99.99,429.000000,,2013-03-19 23:32:00,
2013-03-19 19:42:00,72.0,-26.0,-100.00,East,91,0.0,6.0,0,0.00,,,-99.99,429.000000,,2013-03-19 23:42:00,
2013-03-19 19:51:00,73.0,-25.0,-100.00,East,95,1.0,6.0,0,0.00,,,0.00,297.000000,,2013-03-19 23:51:00,
2013-03-19 20:22:00,73.0,-25.0,-100.00,East,95,1.0,6.0,0,0.00,,,0.00,297.000000,,2013-03-20 00:22:00,
2013-03-19 20:32:00,73.0,-25.0,-100.00,East,95,1.0,6.0,0,0.00,,,0.00,297.000000,,2013-03-20 00:32:00,
2013-03-19 20:42:00,73.0,-25.0,-100.00,East,95,1.0,6.0,0,0.00,,,0.00,297.000000,,2013-03-20 00:42:00,
2013-03-19 20:51:00,78.0,-22.0,-100.00,NNW,332,2.0,8.0,0,0.00,,,0.00,860.000000,,2013-03-20 00:51:00,
2013-03-19 21:12:00,78.0,-22.0,-100.00,NNW,332,2.0,8.0,0,0.00,,,0.00,860.000000,,2013-03-20 01:12:00,
2013-03-19 21:22:00,78.0,-22.0,-100.00,NNW,332,2.0,8.0,0,0.00,,,0.00,860.000000,,2013-03-20 01:22:00,
2013-03-19 21:32:00,78.0,-22.0,-100.00,NNW,332,2.0,8.0,0,0.00,,,0.00,860.000000,,2013-03-20 01:32:00,
2013-03-19 21:42:00,78.0,-22.0,-100.00,NNW,332,2.0,8.0,0,0.00,,,0.00,860.000000,,2013-03-20 01:42:00,
2013-03-19 21:51:00,73.0,-25.0,-100.00,SSW,209,2.0,9.0,0,0.00,,,0.00,502.000000,,2013-03-20 01:51:00,
2013-03-19 22:12:00,73.0,-25.0,-100.00,SSW,209,2.0,9.0,0,0.00,,,0.00,502.000000,,2013-03-20 02:12:00,
2013-03-19 22:22:00,73.0,-25.0,-100.00,SSW,209,2.0,9.0,0,0.00,,,0.00,502.000000,,2013-03-20 02:22:00,
2013-03-19 22:32:00,73.0,-25.0,-100.00,SSW,209,2.0,9.0,0,0.00,,,0.00,502.000000,,2013-03-20 02:32:00,
2013-03-19 22:42:00,73.0,-25.0,-100.00,SSW,209,2.0,9.0,0,0.00,,,0.00,502.000000,,2013-03-20 02:42:00,
2013-03-19 22:51:00,71.0,-26.0,-100.00,SW,223,2.0,9.0,0,0.00,,,0.00,189.000000,,2013-03-20 02:51:00,
2013-03-19 23:22:00,71.0,-26.0,-100.00,SW,223,2.0,9.0,0,0.00,,,0.00,189.000000,,2013-03-20 03:22:00,
2013-03-19 23:42:00,71.0,-26.0,-100.00,SW,223,2.0,9.0,0,0.00,,,0.00,189.000000,,2013-03-20 03:42:00,
2013-03-19 23:51:00,68.0,-28.0,-100.00,WNW,282,2.0,8.0,0,0.00,,,0.00,66.000000,,2013-03-20 03:51:00,